Wind_Speed
13 13 13 12 12 12 13 15 16 18 20 21 22 23 23 23 23 23 24 24 25 26 27 29 31 32 33 34 35 35 35 36 36 36 36 37 38 39 40 41 42 43 44 46 47 49 50 52 55 56 56 56 57 58 55 50 44 40 38 34 27 20 18
14 14 15 15 14 15 15 16 17 19 20 21 22 22 23 23 23 24 24 25 26 27 28 29 31 32 32 33 34 35 35 35 35 36 37 38 38 39 40 41 42 43 45 46 48 50 52 54 56 57 57 58 58 57 54 47 41 39 36 31 23 17 18
15 15 16 16 16 16 16 17 18 18 20 21 21 22 22 23 23 24 25 25 26 27 28 29 30 31 32 33 33 34 34 35 35 36 37 38 39 40 41 42 42 43 45 47 49 50 53 55 58 58 58 59 58 56 50 42 38 36 33 28 21 17 18
15 16 16 17 17 17 17 18 18 19 19 20 20 21 22 22 23 23 24 25 26 27 28 29 30 31 32 33 33 33 34 34 35 37 38 39 40 41 41 42 42 43 45 47 49 51 54 56 58 58 58 60 58 54 45 37 36 35 30 26 20 17 16
15 16 16 17 17 18 18 18 19 19 20 20 20 20 21 22 22 23 24 25 26 27 28 29 30 31 32 33 33 34 34 35 36 37 38 39 40 41 42 42 43 44 46 48 50 52 54 57 57 57 59 59 56 51 43 35 34 32 27 24 20 16 14
16 16 17 17 18 18 18 19 19 20 20 20 20 20 21 21 22 23 24 25 26 27 28 29 30 31 32 33 34 34 35 36 36 37 38 39 40 41 42 43 43 45 47 49 50 52 55 57 57 56 57 58 55 51 44 35 31 28 25 22 19 15 13
17 17 18 18 18 18 19 20 20 20 20 21 21 21 22 22 23 24 25 26 27 28 29 30 31 31 32 33 33 34 35 36 36 37 38 39 40 41 42 43 44 45 47 49 51 53 55 56 57 55 54 55 54 49 42 34 29 26 24 22 19 14 11
17 18 18 18 19 19 20 20 21 21 22 22 22 23 23 24 24 25 26 27 28 28 29 30 31 32 32 33 33 34 34 35 36 37 38 39 40 41 42 43 44 45 47 49 51 53 55 56 55 55 54 53 51 46 39 33 28 25 23 21 17 12 10
18 18 18 19 19 19 20 20 21 22 22 23 24 24 25 25 25 26 26 27 28 29 30 31 31 32 33 33 34 34 34 35 36 37 38 39 40 41 42 43 44 45 47 49 52 53 55 56 54 54 54 53 50 44 37 31 27 24 22 19 15 12 10
18 18 18 19 19 19 20 20 21 21 22 23 24 24 25 25 25 26 27 27 28 29 30 31 31 32 33 34 35 35 35 35 36 37 38 39 40 41 42 43 44 45 47 50 52 53 54 55 53 52 52 51 50 44 36 30 26 23 21 16 13 11 9
18 18 18 19 19 20 20 21 21 21 22 22 23 24 24 24 25 26 26 27 28 28 29 31 31 32 33 34 35 35 36 36 36 37 38 39 40 41 41 42 43 44 47 50 52 53 53 53 52 50 50 50 49 44 36 29 25 22 19 14 12 11 9
19 19 19 20 20 21 21 21 22 22 22 23 24 24 25 25 25 26 26 27 27 28 29 31 32 32 33 34 34 35 36 36 37 37 38 39 40 40 41 42 43 44 46 49 51 52 53 52 50 48 48 48 48 44 36 29 24 21 17 13 11 11 10
20 20 20 21 21 21 22 22 23 23 24 24 25 26 26 26 26 27 27 27 28 29 30 31 32 32 33 34 35 35 35 36 37 37 38 38 39 40 41 41 42 43 46 48 51 52 52 51 49 46 46 46 46 44 35 27 23 19 15 12 11 11 9
21 21 21 22 22 22 22 22 23 24 24 25 26 27 27 27 28 28 28 28 29 30 32 32 32 32 33 34 35 36 36 36 37 37 38 38 39 40 40 41 41 42 45 47 50 51 50 50 47 44 43 44 44 43 34 26 21 17 13 11 11 10 8
22 22 22 23 23 23 23 23 23 23 24 25 26 27 28 28 28 29 29 29 29 30 31 32 31 32 33 35 36 37 37 37 38 39 38 37 38 39 39 40 41 42 44 46 49 50 49 48 46 42 41 42 42 41 34 24 19 15 12 11 11 10 8
23 23 23 23 23 24 24 24 24 24 24 25 26 27 27 28 28 29 29 29 30 30 30 32 33 34 35 35 36 37 38 39 39 40 38 37 38 39 39 39 40 41 43 45 48 48 48 47 44 41 40 40 41 40 33 23 17 13 11 11 11 12 9
24 24 24 24 24 24 25 25 26 26 26 26 26 27 28 29 29 29 30 30 30 31 31 32 34 35 35 35 36 37 39 40 40 39 38 38 39 39 38 38 39 40 42 44 46 47 46 46 43 39 38 38 39 39 32 22 16 12 10 10 11 12 11
24 25 25 25 25 25 25 26 26 27 27 27 28 28 29 29 30 30 31 32 32 33 33 33 34 35 36 36 37 38 39 40 40 39 39 40 39 37 37 37 37 39 41 43 45 45 45 44 42 38 37 36 38 38 32 22 16 12 10 10 11 12 11
25 25 25 26 26 26 26 27 27 28 28 28 29 29 30 31 31 31 32 33 33 34 35 35 35 36 36 37 37 38 39 39 39 39 39 40 38 36 36 36 36 38 40 41 43 44 43 43 40 37 35 34 36 37 31 21 15 12 9 9 10 11 11
26 26 27 27 27 27 27 28 28 29 29 29 29 29 30 31 32 33 33 33 34 34 35 35 36 36 36 36 37 37 38 39 39 39 38 39 37 34 34 35 35 36 38 40 42 43 42 41 38 35 33 32 34 36 30 20 14 12 10 9 10 10 11
27 28 28 29 29 29 29 29 30 30 30 30 30 29 30 31 32 33 34 34 34 34 35 35 35 36 36 36 36 36 38 39 39 39 37 37 37 35 34 34 34 35 37 39 41 41 41 40 37 34 31 30 31 33 30 20 13 11 10 9 10 10 11
28 29 29 29 30 30 31 31 31 31 31 31 30 29 29 30 31 33 35 35 35 35 35 35 35 35 36 37 36 35 36 37 38 39 38 37 37 37 36 35 33 34 36 38 39 40 39 38 36 32 30 28 28 31 29 20 13 11 10 9 10 10 10
29 29 29 29 30 30 30 31 32 32 32 32 31 31 30 31 32 34 36 37 37 36 36 35 35 35 36 37 36 35 36 36 37 38 38 38 38 38 38 37 33 32 34 36 37 38 37 37 35 31 28 26 26 28 28 21 13 10 10 9 9 10 10
30 30 30 30 30 30 30 30 31 32 32 32 32 32 33 34 35 36 38 39 39 38 37 36 36 36 36 37 37 37 36 37 37 37 38 39 40 40 39 37 32 30 33 35 36 36 36 35 33 30 26 24 23 25 27 22 13 9 9 9 10 11 11
31 31 31 31 31 31 31 31 31 31 32 32 32 33 34 34 36 38 40 41 42 41 39 38 37 37 36 36 37 38 37 37 37 38 38 39 41 40 39 36 32 30 31 33 34 35 34 34 32 28 25 23 21 22 24 23 15 9 7 8 9 11 11
33 32 32 32 32 33 32 32 32 32 31 31 31 32 33 34 36 39 41 42 42 42 41 40 38 38 39 37 37 37 37 37 37 38 38 39 40 41 39 36 32 30 30 31 33 33 33 32 30 27 24 22 20 19 21 22 16 9 7 7 8 9 10
34 34 34 33 34 34 34 33 33 33 32 31 31 32 33 34 37 38 39 41 42 42 42 40 39 39 39 38 37 36 36 36 36 37 37 38 39 40 40 37 34 30 29 29 31 32 32 31 29 25 22 21 20 17 17 19 17 10 7 6 6 7 9
36 36 36 36 36 35 35 36 36 36 35 34 34 34 35 36 38 38 39 40 40 41 41 39 38 38 37 37 37 35 32 33 36 37 37 36 38 39 39 37 35 31 28 28 29 30 30 30 28 24 20 19 19 17 15 16 16 11 7 6 5 6 7
37 36 36 37 36 35 35 37 37 37 37 36 36 35 36 38 39 39 38 38 38 39 40 39 37 36 35 35 34 32 31 33 36 37 37 36 37 39 39 37 35 31 27 26 28 29 29 28 27 23 20 18 17 16 14 13 14 12 7 5 5 5 5
38 38 38 39 38 38 38 38 38 38 39 39 37 36 37 40 40 38 37 37 38 40 39 37 36 36 35 34 33 33 35 36 36 37 38 37 37 38 38 37 35 31 26 24 26 27 27 27 26 22 19 17 15 15 14 12 12 11 8 5 4 3 4
42 42 42 42 41 41 41 40 40 40 41 41 40 38 38 39 39 39 38 38 38 39 38 36 35 35 35 34 34 35 36 36 36 38 38 38 38 38 36 35 34 32 27 23 24 25 25 25 25 22 18 16 14 14 13 11 10 10 8 5 4 3 2
46 46 45 44 44 43 43 42 42 41 41 42 41 40 40 39 38 40 41 40 39 38 36 35 34 34 35 35 35 35 35 34 36 37 38 38 38 38 35 34 33 32 27 22 22 23 24 23 23 20 17 15 13 12 12 11 9 8 7 5 4 3 2
48 48 48 47 46 45 44 43 43 42 42 42 42 42 41 40 39 39 41 42 42 39 35 34 34 34 35 35 35 36 36 35 35 36 37 38 38 37 35 33 33 31 27 22 20 21 22 22 21 19 16 14 12 10 10 11 9 7 5 4 3 3 2
49 50 49 49 48 46 45 44 44 43 43 43 43 43 42 42 42 42 41 43 45 42 38 36 35 35 35 36 35 36 37 36 35 35 37 38 37 36 34 32 32 31 27 21 19 20 20 20 20 18 15 12 11 9 8 9 10 8 5 3 1 1 2
51 51 50 50 49 48 46 45 44 43 43 43 43 43 43 43 43 44 43 44 46 46 43 41 39 38 38 37 37 37 37 38 37 36 36 37 37 36 34 33 31 30 27 21 18 18 18 19 18 16 14 12 9 8 7 8 9 8 6 3 0 1 2
52 52 52 51 50 49 47 45 44 43 43 43 43 42 42 42 42 43 44 45 46 47 46 45 43 41 41 40 40 39 39 39 39 37 36 37 37 36 34 32 30 29 27 22 17 16 16 17 17 15 13 11 8 6 6 6 7 8 7 4 0 2 3
54 54 53 52 51 49 47 46 45 44 44 44 44 43 42 41 41 42 43 44 45 46 46 45 43 42 42 42 41 41 41 41 40 37 35 36 37 35 33 30 27 27 26 22 16 14 14 15 15 14 12 11 8 6 4 5 6 7 7 6 2 2 3
Wind_Direction
6 1 356 349 342 338 336 334 333 332 332 332 333 334 335 335 336 336 335 334 334 334 334 334 334 336 337 338 339 340 340 340 340 339 339 339 339 338 338 337 337 336 336 336 336 337 338 338 339 339 340 339 339 338 335 332 330 327 325 325 327 316 293
5 1 359 356 349 343 338 335 333 331 331 332 333 334 335 335 336 336 335 335 336 336 336 336 336 338 339 340 341 341 342 342 341 341 340 341 340 340 340 339 338 337 336 337 338 339 339 339 340 341 341 341 340 339 336 333 331 330 329 330 330 308 290
5 2 1 359 355 350 346 343 340 338 338 338 337 337 337 337 337 337 338 338 339 338 338 339 340 341 342 342 343 343 344 343 343 342 342 342 342 342 341 340 339 338 338 339 340 341 341 342 342 342 342 343 342 341 338 334 333 334 332 334 331 307 298
3 2 360 358 355 353 351 349 347 347 346 345 343 342 341 341 341 341 342 342 342 342 342 343 343 344 344 345 345 345 345 345 345 344 343 343 343 343 342 341 340 339 340 341 342 342 343 343 343 343 344 344 344 343 341 334 333 336 335 335 329 312 311
3 360 358 357 354 352 351 350 349 349 348 347 346 345 344 343 344 345 345 345 344 344 344 344 345 345 346 346 347 347 347 347 346 345 344 344 344 344 344 342 341 341 342 343 343 344 344 345 345 345 346 346 346 344 342 336 332 336 338 335 328 322 326
3 360 357 355 352 350 350 349 348 347 346 345 344 344 343 343 344 345 345 345 345 345 345 344 345 345 346 347 348 349 349 348 347 346 345 345 345 345 345 343 343 343 344 344 344 345 346 346 346 347 347 348 347 346 344 341 337 338 341 337 333 338 342
3 360 357 354 351 350 349 347 346 345 343 343 342 342 342 343 344 345 345 345 344 344 343 343 343 344 345 346 347 348 349 348 347 346 345 345 346 345 345 344 344 345 346 345 346 347 348 347 347 349 350 350 350 348 347 345 344 345 345 343 344 350 353
4 0 357 353 351 349 348 347 344 343 342 341 341 341 342 342 343 342 342 342 342 341 341 341 340 341 342 344 345 346 348 348 347 346 346 346 346 346 345 345 345 346 347 347 347 348 349 349 349 349 351 352 352 351 349 348 348 351 350 350 355 0 4
4 1 357 353 351 349 348 346 344 342 341 340 340 340 340 340 340 339 339 339 339 339 338 338 338 339 340 341 343 345 346 347 346 346 345 346 346 346 346 347 346 347 348 348 349 350 350 350 350 350 351 353 355 354 352 351 353 356 356 360 8 11 12
2 359 356 353 351 350 347 345 344 342 341 341 340 340 339 339 339 338 337 337 337 337 337 337 337 337 338 339 341 343 345 346 346 345 345 345 346 346 347 348 347 348 349 349 350 351 351 351 351 351 353 355 357 357 356 356 360 2 3 10 19 18 19
358 355 353 351 350 348 346 344 342 341 341 341 341 340 340 340 340 339 337 336 336 336 337 336 336 336 337 338 339 341 343 345 345 345 345 345 345 346 347 348 348 349 350 350 351 352 352 352 351 352 354 357 359 359 359 1 6 8 11 22 29 24 25
353 351 349 348 347 346 344 342 340 338 338 339 340 340 338 337 338 338 337 336 335 335 335 336 335 335 335 337 338 339 340 342 343 344 344 344 345 346 347 348 349 350 350 351 352 353 353 353 352 354 356 358 0 1 1 5 10 12 20 34 37 30 31
348 347 346 345 345 344 342 340 338 336 336 337 338 338 337 335 335 335 336 335 333 333 333 333 333 333 334 335 337 337 338 340 340 341 342 343 344 345 347 349 349 350 351 352 353 354 354 353 353 355 358 360 2 2 2 8 14 18 29 41 38 32 32
345 344 343 342 341 341 339 338 337 336 335 335 335 335 334 333 332 333 334 333 332 332 331 330 329 330 332 333 333 334 335 337 338 338 340 341 343 344 346 348 349 350 352 353 354 355 354 354 354 356 360 1 3 3 3 9 18 26 39 46 40 35 34
342 340 339 338 338 337 337 336 335 334 333 332 331 331 330 329 329 330 332 332 332 332 332 331 329 330 330 330 330 331 332 334 335 335 336 338 341 343 345 348 349 350 352 353 355 356 354 355 355 357 1 2 3 3 3 11 22 33 47 49 43 42 41
339 337 336 335 334 334 334 333 333 332 330 329 328 327 327 326 327 328 329 329 330 330 330 329 328 329 329 329 329 329 330 330 332 333 334 336 340 341 344 348 349 350 352 353 356 357 355 355 356 357 2 3 3 4 5 13 27 41 54 53 47 50 48
336 335 334 333 332 331 331 331 331 330 329 328 328 327 326 326 327 328 328 329 329 330 329 328 327 327 327 327 328 328 328 328 330 332 334 336 338 338 342 347 349 350 352 353 357 358 355 356 356 357 2 4 3 5 7 15 31 47 59 57 54 54 50
333 332 331 330 329 329 328 328 328 328 328 328 327 326 325 325 326 328 329 330 331 331 330 330 328 327 327 327 328 328 328 328 329 330 331 333 334 335 340 346 349 350 351 353 358 359 356 356 357 357 2 5 4 6 9 18 34 52 62 59 57 54 46
329 329 328 327 326 326 325 325 325 325 326 326 326 326 325 325 326 327 329 330 332 332 332 332 332 330 330 330 331 332 332 331 330 329 330 331 332 333 338 345 349 350 351 353 358 360 357 356 357 357 2 6 6 7 11 20 37 54 62 57 55 52 43
327 327 326 325 324 323 322 321 321 322 322 323 323 324 324 324 325 326 327 329 330 331 331 333 333 333 334 335 336 338 339 338 335 333 332 332 333 333 337 344 349 350 351 353 358 0 358 357 358 358 2 7 7 8 12 23 41 57 63 59 56 53 44
328 328 327 326 325 323 322 321 320 320 320 321 321 322 322 323 324 325 325 326 328 328 329 331 332 333 334 336 338 341 343 343 341 338 335 335 335 335 338 343 348 351 351 353 358 1 359 358 358 358 2 7 8 9 14 24 45 61 65 63 60 56 46
329 329 329 328 326 325 324 322 321 321 320 320 320 320 321 322 323 323 324 324 325 326 326 327 329 330 331 333 336 339 341 342 343 342 339 336 335 336 339 341 346 351 351 352 358 1 360 359 359 358 2 7 8 11 15 24 46 64 66 64 61 57 49
330 329 329 328 327 326 325 323 322 321 321 320 320 319 320 322 323 323 322 322 322 322 323 324 325 326 327 328 331 334 337 338 339 340 340 337 333 332 334 336 342 351 352 351 357 1 0 359 359 359 2 6 8 11 15 23 43 65 68 65 61 58 52
331 330 329 328 327 326 325 323 322 321 321 321 320 320 320 322 324 323 322 321 321 320 319 320 322 322 323 324 326 329 331 333 335 337 338 338 336 332 331 332 339 350 351 351 356 1 1 360 359 359 2 6 7 10 14 21 38 65 71 67 62 56 53
332 331 331 329 328 326 324 322 321 320 321 321 321 321 321 323 323 322 321 321 320 319 319 318 319 320 321 321 322 324 327 329 331 333 335 336 337 336 333 332 338 347 350 350 355 1 1 0 360 0 3 7 8 8 12 18 34 61 72 68 61 55 55
331 331 330 329 328 326 324 322 319 319 319 320 320 319 320 321 321 319 318 318 318 318 318 319 319 320 320 320 319 320 322 325 328 331 333 335 336 336 335 333 336 344 349 350 354 0 2 1 1 0 2 8 10 8 9 16 29 55 75 73 63 56 56
330 329 328 327 326 325 324 322 320 319 319 319 317 316 317 317 316 314 314 314 315 316 317 318 319 319 320 320 319 317 318 322 326 329 332 334 336 337 336 334 334 340 346 349 353 359 1 1 1 0 2 8 13 12 11 14 26 49 78 82 71 59 57
329 328 327 325 325 324 322 322 321 321 321 320 318 317 318 315 311 310 310 311 312 314 315 317 318 317 317 320 322 320 319 321 325 328 332 334 336 337 336 334 332 335 342 348 352 357 1 1 1 1 3 8 14 17 15 15 23 42 74 90 82 68 59
329 327 325 324 324 323 321 320 320 319 320 321 320 319 316 312 309 309 308 309 311 312 314 316 317 316 316 319 322 322 321 322 323 327 330 333 335 336 335 334 331 331 337 346 351 355 360 1 0 0 3 7 14 19 19 17 22 36 64 92 93 79 64
331 329 327 325 325 324 322 322 321 320 320 320 320 318 313 310 309 309 308 309 311 311 312 314 316 316 317 319 319 318 320 322 323 325 328 330 333 334 334 334 331 329 333 343 350 353 358 1 0 360 2 5 11 18 21 19 21 33 54 84 96 91 78
334 332 329 327 326 324 323 322 321 321 320 319 319 317 313 311 311 310 309 311 312 312 312 313 313 314 316 318 317 316 318 320 321 322 325 327 329 332 333 334 331 328 328 338 348 351 356 1 360 359 2 3 6 16 20 19 20 28 46 77 99 100 98
333 332 329 327 325 323 321 320 319 318 318 317 317 315 314 314 312 308 308 311 312 313 315 313 312 313 314 316 317 316 317 317 316 318 321 324 326 329 332 333 331 327 325 333 345 349 355 0 360 358 2 1 1 11 18 18 16 21 35 64 96 106 105
331 329 328 326 324 321 319 318 317 316 314 313 313 312 311 311 308 305 306 307 309 312 314 313 312 312 312 314 315 315 314 314 313 314 317 320 323 326 330 332 331 327 323 327 340 347 353 359 359 358 1 360 354 2 14 16 16 12 17 44 83 109 116
328 327 325 324 322 319 317 316 315 314 313 311 310 309 308 307 306 305 305 305 306 309 310 310 310 310 310 311 311 311 311 311 310 311 313 316 319 323 327 329 329 327 322 322 334 344 350 357 358 356 2 1 350 352 5 13 16 13 5 16 62 126 147
326 325 323 322 320 317 315 314 314 313 312 310 309 307 305 304 303 303 302 302 303 304 305 306 307 307 307 307 307 307 307 306 307 308 310 312 315 318 323 325 325 325 321 318 327 340 348 356 356 355 2 2 347 343 356 5 13 16 10 7 112 206 211
324 323 322 320 319 317 315 314 313 313 312 310 309 307 305 303 301 299 298 298 298 299 301 302 303 304 304 304 303 303 303 302 303 306 308 308 310 315 321 323 322 322 319 314 320 334 345 354 355 353 360 3 349 337 346 358 9 15 15 15 24 202 213
323 322 321 319 318 316 315 314 314 314 313 312 310 309 307 305 302 300 298 297 296 296 297 298 300 300 300 300 299 299 299 299 299 302 305 305 306 312 319 321 319 319 316 310 311 327 342 351 353 353 357 1 352 335 335 351 4 12 18 20 18 204 211
Height
5772 5771 5769 5768 5767 5765 5764 5763 5761 5760 5758 5756 5754 5753 5751 5749 5747 5744 5742 5740 5738 5735 5733 5731 5728 5725 5722 5719 5716 5713 5710 5707 5703 5700 5696 5693 5689 5685 5681 5677 5673 5669 5664 5659 5655 5650 5646 5641 5635 5628 5621 5614 5607 5601 5594 5588 5583 5578 5574 5571 5568 5566 5564
5772 5771 5769 5768 5766 5765 5764 5762 5761 5759 5757 5756 5754 5752 5750 5748 5746 5743 5741 5739 5736 5734 5731 5729 5726 5723 5720 5717 5714 5711 5708 5705 5701 5698 5694 5691 5687 5683 5679 5675 5671 5666 5662 5657 5652 5648 5642 5637 5631 5625 5618 5611 5603 5596 5589 5583 5579 5574 5571 5568 5566 5563 5561
5772 5770 5769 5767 5766 5765 5763 5762 5760 5758 5756 5755 5753 5751 5749 5747 5745 5742 5740 5737 5735 5732 5730 5727 5725 5722 5719 5716 5713 5710 5706 5703 5700 5696 5692 5688 5685 5681 5677 5673 5669 5665 5660 5655 5650 5645 5640 5634 5627 5621 5614 5608 5601 5593 5586 5580 5576 5572 5568 5566 5564 5561 5559
5771 5770 5769 5767 5766 5764 5763 5761 5760 5758 5756 5754 5752 5750 5748 5746 5744 5741 5739 5736 5734 5731 5728 5726 5723 5720 5717 5714 5711 5708 5705 5701 5698 5694 5690 5686 5683 5679 5675 5671 5667 5662 5658 5653 5648 5643 5637 5631 5625 5618 5611 5604 5597 5591 5585 5579 5574 5570 5567 5564 5562 5560 5558
5771 5770 5768 5767 5766 5764 5762 5761 5759 5757 5755 5753 5751 5749 5747 5745 5743 5740 5738 5735 5732 5730 5727 5724 5721 5719 5716 5713 5710 5707 5704 5700 5696 5693 5689 5685 5681 5678 5674 5669 5665 5660 5656 5651 5646 5640 5634 5629 5622 5615 5608 5601 5595 5588 5583 5578 5572 5569 5566 5563 5560 5559 5558
5771 5769 5768 5767 5765 5764 5762 5760 5758 5757 5755 5753 5751 5748 5746 5744 5741 5739 5736 5734 5731 5728 5725 5723 5720 5717 5714 5711 5708 5705 5702 5699 5695 5691 5687 5684 5680 5676 5672 5667 5663 5658 5654 5649 5644 5638 5632 5626 5620 5613 5605 5598 5592 5585 5580 5575 5571 5567 5565 5562 5560 5559 5558
5770 5769 5767 5766 5765 5763 5761 5759 5758 5756 5754 5752 5750 5748 5745 5743 5740 5737 5735 5732 5730 5727 5724 5721 5718 5715 5713 5709 5706 5704 5701 5697 5694 5690 5686 5682 5678 5674 5670 5666 5661 5657 5652 5647 5641 5636 5630 5624 5617 5611 5604 5596 5589 5583 5577 5573 5569 5567 5564 5562 5559 5559 5558
5770 5769 5767 5766 5764 5762 5761 5759 5757 5755 5753 5751 5749 5747 5744 5741 5739 5736 5734 5731 5728 5726 5723 5720 5717 5714 5711 5708 5705 5702 5699 5695 5692 5688 5684 5681 5677 5673 5668 5664 5659 5655 5650 5645 5639 5634 5628 5622 5616 5609 5603 5596 5589 5582 5576 5572 5569 5566 5564 5561 5560 5559 5559
5770 5768 5767 5765 5764 5762 5760 5758 5756 5754 5752 5750 5748 5746 5743 5740 5738 5735 5733 5730 5727 5725 5722 5719 5716 5712 5709 5706 5703 5700 5697 5694 5690 5686 5683 5679 5675 5671 5667 5662 5658 5653 5649 5643 5638 5632 5626 5621 5615 5608 5602 5595 5588 5582 5577 5572 5569 5567 5564 5562 5560 5560 5559
5770 5768 5767 5765 5763 5761 5759 5757 5755 5753 5751 5749 5747 5745 5742 5740 5737 5734 5732 5729 5726 5723 5721 5718 5714 5711 5708 5705 5702 5698 5695 5692 5689 5685 5681 5677 5673 5669 5665 5661 5656 5652 5647 5642 5636 5631 5625 5619 5613 5607 5600 5594 5587 5581 5576 5572 5569 5567 5565 5562 5561 5561 5560
5769 5768 5766 5764 5762 5760 5758 5756 5754 5752 5750 5748 5746 5744 5741 5739 5736 5733 5731 5728 5725 5722 5719 5716 5713 5710 5707 5704 5701 5697 5694 5691 5687 5683 5680 5676 5672 5668 5664 5659 5655 5650 5646 5641 5635 5629 5624 5618 5612 5606 5599 5593 5587 5581 5576 5572 5570 5568 5566 5564 5563 5562 5562
5769 5767 5765 5763 5761 5759 5757 5755 5753 5751 5749 5747 5745 5743 5740 5737 5735 5732 5730 5727 5724 5721 5718 5715 5712 5709 5706 5703 5699 5696 5693 5689 5686 5682 5678 5674 5670 5666 5662 5658 5653 5649 5644 5639 5634 5628 5622 5617 5611 5605 5598 5593 5587 5581 5576 5573 5570 5568 5567 5565 5564 5564 5563
5768 5766 5764 5762 5760 5758 5756 5754 5752 5750 5748 5746 5744 5741 5739 5736 5733 5731 5728 5726 5723 5720 5717 5714 5711 5707 5704 5701 5698 5695 5691 5688 5684 5681 5677 5673 5669 5665 5661 5657 5652 5647 5643 5638 5633 5627 5621 5616 5610 5604 5598 5593 5587 5582 5577 5574 5572 5570 5568 5567 5566 5565 5565
5767 5765 5763 5761 5759 5757 5755 5753 5751 5749 5746 5744 5742 5739 5737 5734 5732 5729 5727 5724 5721 5719 5716 5712 5709 5706 5703 5699 5696 5693 5690 5686 5683 5679 5675 5671 5667 5663 5660 5655 5651 5646 5642 5637 5632 5626 5621 5615 5610 5604 5599 5594 5588 5583 5579 5575 5573 5571 5570 5569 5568 5567 5566
5765 5763 5761 5759 5757 5755 5753 5751 5749 5747 5745 5742 5740 5737 5735 5732 5730 5727 5725 5722 5720 5717 5714 5711 5707 5704 5701 5698 5694 5691 5688 5684 5681 5677 5674 5670 5666 5662 5659 5655 5650 5645 5641 5636 5632 5626 5620 5615 5609 5604 5599 5594 5589 5584 5580 5576 5574 5572 5571 5570 5569 5569 5568
5764 5762 5760 5758 5756 5753 5751 5749 5747 5745 5743 5740 5738 5735 5733 5730 5728 5726 5723 5720 5718 5715 5712 5709 5705 5702 5699 5696 5693 5689 5686 5682 5679 5676 5672 5668 5664 5661 5657 5654 5649 5644 5639 5635 5631 5625 5620 5614 5609 5604 5600 5595 5590 5585 5581 5578 5575 5574 5573 5572 5571 5570 5569
5763 5761 5758 5756 5754 5752 5749 5747 5745 5743 5741 5738 5736 5733 5731 5728 5726 5723 5721 5718 5715 5713 5710 5707 5704 5700 5697 5694 5691 5687 5684 5680 5677 5673 5670 5667 5663 5659 5656 5652 5648 5643 5638 5634 5630 5625 5619 5614 5609 5605 5600 5596 5591 5586 5582 5579 5577 5575 5574 5574 5573 5572 5571
5761 5759 5757 5755 5752 5750 5747 5745 5743 5741 5738 5736 5734 5731 5728 5726 5724 5721 5718 5716 5713 5710 5708 5705 5702 5698 5695 5692 5689 5685 5682 5678 5675 5671 5668 5664 5661 5658 5654 5651 5647 5642 5638 5633 5629 5625 5619 5614 5609 5605 5601 5597 5593 5588 5584 5581 5578 5577 5576 5575 5575 5574 5573
5759 5757 5755 5753 5750 5748 5745 5743 5741 5738 5736 5734 5731 5729 5726 5724 5721 5719 5716 5713 5711 5708 5705 5703 5700 5696 5693 5690 5686 5683 5680 5676 5673 5669 5666 5662 5659 5656 5653 5649 5646 5641 5637 5633 5628 5624 5619 5614 5609 5605 5601 5598 5594 5589 5585 5582 5580 5578 5578 5577 5577 5576 5575
5757 5755 5753 5751 5748 5746 5743 5741 5739 5736 5734 5732 5729 5727 5724 5721 5719 5716 5714 5711 5709 5706 5703 5700 5697 5694 5691 5688 5684 5681 5678 5674 5671 5667 5664 5660 5657 5654 5651 5647 5644 5640 5636 5632 5628 5624 5619 5614 5609 5606 5602 5598 5595 5591 5587 5584 5581 5580 5579 5579 5578 5578 5577
5755 5753 5751 5749 5746 5744 5741 5739 5736 5734 5732 5729 5727 5725 5722 5719 5717 5714 5711 5709 5706 5704 5701 5698 5695 5692 5689 5686 5683 5679 5676 5673 5669 5666 5662 5659 5655 5652 5649 5646 5643 5639 5635 5631 5627 5623 5619 5614 5610 5606 5602 5599 5596 5592 5588 5585 5583 5582 5581 5581 5580 5580 5579
5754 5752 5749 5747 5744 5742 5739 5736 5734 5732 5729 5727 5725 5722 5720 5718 5715 5712 5709 5707 5704 5702 5699 5696 5693 5690 5687 5684 5681 5678 5675 5671 5668 5664 5661 5658 5654 5651 5648 5644 5642 5638 5634 5631 5627 5623 5619 5614 5610 5606 5603 5600 5597 5594 5590 5587 5585 5584 5583 5583 5582 5581 5580
5752 5750 5747 5745 5742 5740 5737 5734 5732 5729 5727 5725 5722 5720 5718 5715 5713 5710 5707 5704 5702 5699 5696 5694 5691 5688 5685 5682 5679 5676 5673 5670 5667 5663 5660 5656 5653 5650 5646 5643 5640 5637 5633 5630 5626 5623 5619 5615 5610 5607 5604 5601 5598 5595 5592 5589 5587 5586 5585 5584 5584 5583 5582
5749 5747 5745 5743 5740 5737 5735 5732 5729 5727 5725 5722 5720 5718 5715 5713 5711 5708 5705 5702 5699 5696 5694 5691 5688 5686 5683 5680 5677 5674 5672 5669 5665 5662 5659 5655 5652 5648 5645 5642 5639 5636 5632 5629 5626 5622 5619 5615 5610 5607 5604 5601 5599 5596 5593 5591 5589 5587 5586 5586 5585 5584 5583
5746 5744 5742 5740 5737 5735 5732 5730 5727 5725 5722 5720 5718 5715 5713 5711 5709 5707 5703 5700 5697 5694 5691 5688 5686 5683 5680 5677 5675 5672 5670 5667 5664 5660 5657 5654 5650 5647 5643 5640 5638 5634 5631 5628 5626 5622 5618 5615 5611 5607 5604 5602 5599 5597 5595 5592 5590 5589 5588 5587 5586 5586 5585
5744 5741 5739 5737 5734 5732 5730 5727 5724 5722 5720 5717 5715 5713 5710 5708 5707 5704 5701 5697 5694 5691 5688 5685 5683 5681 5678 5675 5672 5670 5667 5665 5662 5659 5655 5652 5649 5645 5642 5639 5636 5633 5630 5627 5625 5622 5618 5615 5611 5607 5605 5602 5600 5598 5596 5593 5591 5590 5589 5588 5587 5587 5586
5741 5738 5736 5734 5731 5729 5726 5723 5721 5719 5717 5714 5712 5709 5707 5705 5703 5701 5698 5695 5691 5688 5685 5683 5680 5678 5675 5672 5670 5667 5665 5662 5659 5657 5653 5650 5647 5644 5641 5638 5635 5632 5629 5626 5624 5621 5618 5615 5611 5608 5605 5602 5600 5598 5596 5594 5592 5591 5590 5589 5588 5588 5587
5737 5735 5733 5730 5728 5726 5723 5720 5717 5715 5713 5711 5708 5705 5704 5702 5699 5697 5695 5692 5689 5686 5682 5680 5678 5675 5673 5670 5667 5664 5662 5660 5657 5654 5651 5648 5645 5642 5639 5636 5634 5631 5628 5625 5623 5621 5618 5614 5611 5608 5605 5603 5600 5598 5597 5595 5593 5591 5591 5590 5589 5589 5588
5735 5732 5730 5727 5725 5723 5720 5717 5715 5712 5709 5707 5704 5701 5699 5697 5694 5692 5690 5688 5686 5683 5679 5677 5675 5673 5670 5668 5665 5662 5660 5657 5655 5652 5649 5646 5644 5640 5638 5635 5632 5630 5627 5624 5622 5620 5617 5614 5611 5608 5605 5603 5601 5599 5597 5595 5594 5592 5591 5591 5590 5589 5589
5731 5728 5726 5723 5720 5718 5715 5713 5710 5707 5704 5702 5700 5698 5694 5691 5689 5688 5686 5684 5682 5679 5676 5674 5672 5670 5667 5665 5663 5660 5657 5655 5652 5650 5647 5644 5641 5638 5636 5633 5630 5628 5626 5623 5620 5619 5617 5614 5611 5607 5605 5603 5601 5599 5597 5596 5595 5593 5592 5591 5591 5590 5590
5727 5724 5721 5718 5716 5713 5710 5708 5705 5703 5700 5697 5696 5694 5690 5688 5685 5683 5681 5680 5678 5675 5673 5670 5669 5667 5664 5662 5660 5657 5655 5653 5650 5647 5644 5642 5639 5636 5634 5631 5629 5627 5625 5622 5619 5618 5616 5613 5610 5607 5604 5603 5601 5599 5597 5596 5595 5594 5593 5592 5591 5591 5590
5723 5720 5717 5715 5712 5709 5706 5704 5701 5699 5696 5694 5692 5689 5687 5684 5682 5679 5677 5675 5674 5672 5670 5667 5666 5664 5661 5659 5657 5655 5653 5650 5647 5645 5642 5639 5637 5634 5632 5630 5627 5625 5623 5621 5618 5616 5615 5612 5609 5606 5604 5602 5601 5599 5597 5596 5595 5594 5593 5592 5592 5591 5591
5720 5717 5714 5711 5708 5705 5702 5700 5697 5695 5693 5690 5688 5685 5683 5681 5679 5677 5674 5670 5668 5668 5667 5665 5662 5660 5658 5656 5654 5651 5649 5647 5645 5642 5640 5637 5635 5632 5630 5628 5626 5623 5622 5619 5616 5615 5613 5611 5609 5606 5603 5601 5600 5599 5598 5596 5595 5594 5593 5593 5592 5592 5591
5717 5714 5711 5708 5705 5701 5699 5696 5693 5691 5688 5686 5683 5681 5679 5677 5674 5672 5670 5666 5663 5662 5662 5661 5659 5657 5654 5652 5650 5648 5646 5644 5642 5640 5637 5634 5632 5630 5628 5626 5624 5622 5620 5618 5615 5613 5612 5610 5608 5605 5603 5601 5600 5599 5597 5596 5595 5594 5593 5593 5592 5592 5591
5714 5710 5707 5704 5700 5697 5694 5692 5689 5686 5684 5681 5679 5676 5674 5672 5669 5667 5665 5662 5659 5657 5656 5656 5654 5653 5650 5648 5646 5644 5642 5640 5638 5636 5634 5632 5630 5628 5626 5624 5622 5620 5618 5617 5614 5612 5610 5609 5607 5605 5602 5600 5599 5598 5597 5596 5595 5594 5593 5592 5592 5592 5591
5709 5706 5702 5699 5696 5692 5689 5687 5684 5681 5679 5676 5674 5672 5669 5667 5665 5662 5659 5657 5655 5652 5651 5650 5649 5647 5645 5643 5641 5640 5638 5636 5634 5633 5631 5629 5627 5625 5623 5621 5620 5618 5616 5615 5613 5610 5609 5608 5606 5604 5601 5599 5598 5598 5597 5596 5595 5594 5593 5592 5591 5591 5591
5704 5701 5697 5694 5691 5688 5685 5682 5679 5676 5673 5671 5668 5666 5664 5662 5659 5657 5654 5651 5649 5647 5645 5644 5643 5642 5640 5638 5636 5635 5633 5632 5630 5629 5628 5625 5623 5622 5621 5619 5617 5615 5614 5613 5611 5609 5607 5606 5605 5603 5600 5598 5597 5597 5596 5595 5594 5594 5593 5591 5591 5590 5590